Location: Waco, TX
(31.5480°N, 97.1670°W)
Time: 18:51:30
(UTC-06:00)

Amateur Radio Satellites - All Passes

Search period start: 19 January 2018 18:21
Search period end: 20 January 2018 18:21
Location: Waco, TX, 31.5480°N, 97.1670°W

Satellite Date Start Highest point End Downlink Frequencies (MHz)
Time Altitude Azimuth
XW-2D 19 Jan 18:25:22 18:28:47 31° 262° (W) 18:32:13 145.860 - 145.880
BEESAT 3 19 Jan 18:28:52 18:30:04 11° 51° (NE) 18:31:15 437.485
NUDT-PHONESAT 19 Jan 18:31:24 18:34:57 42° 261° (W) 18:38:30 437.300
STARS 19 Jan 18:35:01 18:39:28 86° 280° (W) 18:43:53 437.465
XW-2B 19 Jan 18:43:37 18:46:25 19° 264° (W) 18:49:13 145.730 - 145.750
HO-68 19 Jan 18:46:47 18:53:57 88° 253° (WSW) 19:01:09 435.675
SRMSAT 19 Jan 18:48:34 18:52:05 16° 195° (SSW) 18:55:36 437.500
AAUSAT CUBESAT 2 19 Jan 18:51:08 18:54:17 21° 71° (ENE) 18:57:25 437.432
STRAND 1 19 Jan 18:56:38 19:00:11 19° 95° (E) 19:03:44 437.568
SEEDS 19 Jan 19:03:50 19:08:04 86° 75° (ENE) 19:12:18 437.485
CUBEBUG 2 19 Jan 19:10:42 19:14:59 75° 259° (W) 19:19:26 437.445
CUTE 1.7 + AOD 2 19 Jan 19:13:50 19:17:50 38° 262° (W) 19:21:50 437.475
XW-2A 19 Jan 19:14:31 19:17:34 30° 74° (ENE) 19:20:36 145.665 - 145.685
RS-15 19 Jan 19:14:34 19:25:33 55° 250° (WSW) 19:36:04 29.354- 29.394
UWE-3 19 Jan 19:18:59 19:23:18 71° 76° (ENE) 19:27:46 435.000/436.395/437.385
CUTE-I 19 Jan 19:41:50 19:42:37 10° 268° (W) 19:43:24 437.470
FO-29 19 Jan 19:44:10 19:48:06 22° 96° (E) 19:52:07 435.910
ZACube-1 19 Jan 19:45:49 19:50:10 72° 77° (ENE) 19:54:40 437.345
AO-73 19 Jan 19:53:27 19:57:50 77° 76° (ENE) 20:02:19 145.935
BEESAT 3 19 Jan 20:04:05 20:07:50 48° 246° (WSW) 20:11:30 437.485
PCSat 19 Jan 20:04:21 20:09:47 77° 65° (ENE) 20:15:12 145.827
AAUSAT CUBESAT 2 19 Jan 20:26:19 20:29:33 22° 264° (W) 20:32:48 437.432
Oscar 11 19 Jan 20:28:26 20:32:45 66° 259° (W) 20:37:05 .
STRAND 1 19 Jan 20:34:40 20:39:26 39° 288° (WNW) 20:44:11 437.568
Max Valier Satellite 19 Jan 20:38:46 20:40:32 13° 70° (ENE) 20:42:18 145.860
HO-68 19 Jan 20:40:36 20:42:21 11° 268° (W) 20:44:07 435.675
nSIGHT-1 19 Jan 20:44:35 20:47:41 62° 316° (NW) 20:50:49 .
BEESAT 2 19 Jan 20:48:30 20:52:27 67° 245° (WSW) 20:56:20 435.950
ISS 19 Jan 20:52:08 20:55:23 86° 320° (NW) 20:58:38 437.550
EO-88 19 Jan 21:00:17 21:02:30 15° 71° (ENE) 21:04:42 145.990 - 145.960
DELFI C3 19 Jan 21:14:43 21:18:36 70° 78° (ENE) 21:22:29 145.870
FO-29 19 Jan 21:28:41 21:33:13 32° 289° (WNW) 21:37:51 435.910
AO-85 19 Jan 21:30:14 21:35:05 45° 59° (ENE) 21:40:10 145.980
TIGRISAT 19 Jan 21:40:23 21:44:40 34° 98° (E) 21:48:53 435.000
UNISAT 6 19 Jan 21:55:02 21:59:40 57° 100° (E) 22:04:15 437.425
Max Valier Satellite 19 Jan 22:10:44 22:14:00 29° 262° (W) 22:17:18 145.860
LO-87 19 Jan 22:23:14 22:25:49 19° 72° (ENE) 22:28:24 145.935 - 145.965
PRISM 19 Jan 22:31:18 22:34:40 25° 97° (E) 22:38:03 437.425
ESTCUBE 1 19 Jan 22:31:21 22:34:57 24° 71° (ENE) 22:38:34 437.505/2401.250
EO-88 19 Jan 22:32:55 22:35:53 23° 263° (W) 22:38:51 145.990 - 145.960
YUBILEINY 19 Jan 22:35:18 22:42:57 34° 86° (E) 22:50:32 435.215
AO-85 19 Jan 23:11:41 23:15:14 19° 251° (WSW) 23:18:52 145.980
TIGRISAT 19 Jan 23:17:45 23:21:01 19° 291° (WNW) 23:24:16 435.000
UNISAT 6 19 Jan 23:34:09 23:35:47 12° 294° (WNW) 23:37:26 437.425
EO-79 19 Jan 23:34:45 23:37:41 18° 95° (E) 23:40:37 145.935-145.965
DUCHIFAT 1 19 Jan 23:35:56 23:37:56 13° 94° (E) 23:39:56 145.980
AIST 2D 19 Jan 23:40:42 23:44:10 81° 282° (WNW) 23:47:37 435.315
LO-87 19 Jan 23:56:41 23:59:03 17° 265° (W) 00:01:27 145.935 - 145.965
PRISM 20 Jan 00:06:52 00:09:43 19° 290° (WNW) 00:12:34 437.425
ESTCUBE 1 20 Jan 00:07:56 00:11:36 24° 263° (W) 00:15:17 437.505/2401.250
POLYITAN 1 20 Jan 00:08:23 00:12:32 47° 100° (E) 00:16:39 437.675
VELOX 1 20 Jan 00:12:06 00:16:09 38° 73° (ENE) 00:20:14 145.980
SPROUT 20 Jan 00:18:02 00:22:16 88° 258° (WSW) 00:26:32 437.525
NANOSAT C BR1 20 Jan 00:25:04 00:29:19 68° 100° (E) 00:33:33 145.865
YUBILEINY 20 Jan 00:31:11 00:39:24 43° 282° (WNW) 00:47:40 435.215
O/OREOS (USA 219) 20 Jan 00:32:46 00:37:12 57° 106° (ESE) 00:41:37 437.305
DX 1 20 Jan 00:34:49 00:36:16 11° 67° (ENE) 00:37:42 434.975-435.025
NO-84 20 Jan 00:37:20 00:39:03 14° 42° (NE) 00:40:49 435.350 FM
QB50P2 20 Jan 00:37:54 00:42:09 61° 284° (WNW) 00:46:21 145.880/145.840
BUGSAT 1 20 Jan 00:41:21 00:44:03 16° 95° (E) 00:46:44 437.445
EO-79 20 Jan 01:09:43 01:13:24 28° 288° (WNW) 01:17:03 145.935-145.965
DUCHIFAT 1 20 Jan 01:09:44 01:13:40 38° 286° (WNW) 01:17:35 145.980
AO-91 20 Jan 01:25:24 01:29:44 40° 99° (E) 01:34:29 145.960
POLYITAN 1 20 Jan 01:46:27 01:47:49 11° 293° (WNW) 01:49:10 437.675
Gurwin Techsat 1B 20 Jan 01:46:43 01:51:43 41° 99° (E) 01:56:42 435.225
VELOX 1 20 Jan 01:50:26 01:52:40 14° 266° (W) 01:54:55 145.980
50 SAT 20 Jan 01:53:31 01:56:34 66° 259° (W) 01:59:37 437.505
MOZHAYETS 4 20 Jan 01:56:22 01:59:14 16° 68° (ENE) 02:02:06
UKube-1 20 Jan 01:58:09 02:02:25 71° 76° (ENE) 02:06:42 .
DX 1 20 Jan 02:07:47 02:11:57 48° 260° (W) 02:16:09 434.975-435.025
Oscar 19 20 Jan 02:09:34 02:14:45 82° 284° (WNW) 02:19:53 437.125/150
NO-84 20 Jan 02:13:36 02:16:11 26° 234° (SW) 02:18:55 435.350 FM
BUGSAT 1 20 Jan 02:15:38 02:19:22 30° 287° (WNW) 02:23:05 437.445
O/OREOS (USA 219) 20 Jan 02:15:50 02:16:55 11° 300° (WNW) 02:18:00 437.305
FALCONSAT 3 20 Jan 02:40:03 02:41:34 12° 146° (SE) 02:43:05 435.103
ITUPSAT 1 20 Jan 02:50:46 02:55:08 38° 72° (ENE) 02:59:33 437.325
AO-91 20 Jan 03:03:00 03:05:55 17° 289° (WNW) 03:08:58 145.960
ITAMSAT 1 20 Jan 03:14:53 03:18:13 17° 95° (E) 03:21:31 435.822/435.867
nSIGHT-1 20 Jan 03:16:13 03:17:46 13° 33° (NNE) 03:19:19 .
ISS 20 Jan 03:25:29 03:26:39 11° 32° (NNE) 03:27:49 437.550
Gurwin Techsat 1B 20 Jan 03:27:35 03:31:18 20° 293° (WNW) 03:35:01 435.225
AO-7 20 Jan 03:27:46 03:35:46 48° 102° (ESE) 03:43:40 .
BEESAT 20 Jan 03:30:45 03:35:29 73° 258° (WSW) 03:40:15 436.000
MOZHAYETS 4 20 Jan 03:31:44 03:36:00 38° 262° (W) 03:40:20
CUBESAT XI-V 20 Jan 03:31:48 03:36:16 44° 74° (ENE) 03:40:43 437.345
FALCONSAT 3 20 Jan 04:16:36 04:20:13 58° 157° (SSE) 04:23:49 435.103
M-CUBED/EXP-1 PRIME 20 Jan 04:27:47 04:28:26 10° 99° (E) 04:29:05 437.505
ITUPSAT 1 20 Jan 04:29:58 04:33:01 17° 265° (W) 04:36:04 437.325
nSIGHT-1 20 Jan 04:51:02 04:54:08 51° 228° (SW) 04:57:14 .
ITAMSAT 1 20 Jan 04:52:52 04:57:47 44° 288° (WNW) 05:02:42 435.822/435.867
SO-50 20 Jan 04:54:37 04:58:22 27° 111° (ESE) 05:02:09 436.795
ISS 20 Jan 05:00:11 05:03:27 69° 226° (SW) 05:06:41 437.550
KKS-1 20 Jan 05:07:27 05:11:51 74° 77° (ENE) 05:16:16 437.445
CUBESAT XI-V 20 Jan 05:11:24 05:13:45 14° 267° (W) 05:16:06 437.345
DOVE 4 20 Jan 05:19:40 05:24:05 83° 283° (WNW) 05:28:45 437.250
AO-7 20 Jan 05:21:00 05:28:08 33° 297° (WNW) 05:35:16 .
STARS 20 Jan 05:26:24 05:30:30 42° 73° (ENE) 05:34:36 437.465
XW-2F 20 Jan 05:53:54 05:56:53 23° 96° (E) 05:59:51 145.980 - 146.000
KAITUO 1B 20 Jan 05:54:18 05:56:43 17° 95° (E) 05:59:06 145.475/437.950
FALCONSAT 3 20 Jan 05:55:45 05:59:20 50° 352° (N) 06:02:55 435.103
M-CUBED/EXP-1 PRIME 20 Jan 06:00:07 06:02:52 25° 292° (WNW) 06:05:35 437.505
XW-2D 20 Jan 06:02:24 06:05:50 34° 98° (E) 06:09:15 145.860 - 145.880
NUDT-PHONESAT 20 Jan 06:06:31 06:09:28 22° 97° (E) 06:12:22 437.300
STRAND 1 20 Jan 06:08:16 06:11:22 16° 67° (ENE) 06:14:27 437.568
CUTE-I 20 Jan 06:19:14 06:24:17 42° 99° (E) 06:29:19 437.470
XW-2B 20 Jan 06:19:45 06:23:27 59° 100° (E) 06:27:07 145.730 - 145.750
HO-68 20 Jan 06:21:17 06:26:47 23° 96° (E) 06:32:15 435.675
SO-50 20 Jan 06:35:11 06:38:44 23° 306° (NW) 06:42:21 436.795
LilacSat-2 20 Jan 06:46:44 06:50:22 47° 284° (WNW) 06:53:58 437.200
XW-2C 20 Jan 06:50:06 06:53:42 46° 285° (WNW) 06:57:17 145.795 - 145.815
SEEDS 20 Jan 06:53:21 06:56:26 20° 96° (E) 06:59:30 437.485
CUTE 1.7 + AOD 2 20 Jan 07:03:20 07:07:25 50° 99° (E) 07:11:29 437.475
STARS 20 Jan 07:05:09 07:06:57 12° 266° (W) 07:08:46 437.465
CUBEBUG 2 20 Jan 07:06:27 07:10:48 35° 98° (E) 07:15:06 437.445
UWE-3 20 Jan 07:14:12 07:17:50 22° 95° (E) 07:21:25 435.000/436.395/437.385
RS-15 20 Jan 07:17:59 07:28:57 40° 106° (ESE) 07:39:54 29.354- 29.394
KAITUO 1B 20 Jan 07:27:43 07:30:34 21° 288° (WNW) 07:33:23 145.475/437.950
XW-2F 20 Jan 07:28:23 07:30:45 16° 289° (WNW) 07:33:06 145.980 - 146.000
FO-29 20 Jan 07:33:21 07:40:18 57° 74° (ENE) 07:46:28 435.910
FALCONSAT 3 20 Jan 07:35:08 07:38:42 48° 7° (N) 07:42:16 435.103
XW-2D 20 Jan 07:38:30 07:39:36 11° 291° (WNW) 07:40:42 145.860 - 145.880
ZACube-1 20 Jan 07:39:55 07:43:22 21° 95° (E) 07:46:45 437.345
NUDT-PHONESAT 20 Jan 07:40:49 07:43:03 16° 289° (WNW) 07:45:17 437.300
STRAND 1 20 Jan 07:45:14 07:50:05 46° 260° (W) 07:54:59 437.568
AO-73 20 Jan 07:47:10 07:50:41 22° 95° (E) 07:54:07 145.935
CUTE-I 20 Jan 08:00:17 08:03:57 19° 293° (WNW) 08:07:37 437.470
HO-68 20 Jan 08:07:48 08:14:41 52° 289° (WNW) 08:21:33 435.675
AAUSAT CUBESAT 2 20 Jan 08:12:05 08:16:11 80° 102° (ESE) 08:20:16 437.432
XW-2A 20 Jan 08:12:47 08:16:07 69° 101° (E) 08:19:25 145.665 - 145.685
Oscar 11 20 Jan 08:20:54 08:24:47 32° 98° (E) 08:28:37 .
SEEDS 20 Jan 08:28:40 08:31:59 23° 288° (WNW) 08:35:17 437.485
TIGRISAT 20 Jan 08:35:13 08:37:50 16° 68° (ENE) 08:40:29 435.000
CUTE 1.7 + AOD 2 20 Jan 08:42:17 08:42:44 10° 293° (WNW) 08:43:12 437.475
CUBEBUG 2 20 Jan 08:43:47 08:47:04 19° 291° (WNW) 08:50:19 437.445
UNISAT 6 20 Jan 08:49:10 08:52:46 25° 71° (ENE) 08:56:26 437.425
UWE-3 20 Jan 08:50:15 08:54:10 27° 289° (WNW) 08:58:02 435.000/436.395/437.385
YUBILEINY 20 Jan 08:55:41 08:57:35 11° 65° (ENE) 08:59:28 435.215
DELFI C3 20 Jan 08:58:06 08:59:46 12° 94° (E) 09:01:26 145.870
PCSat 20 Jan 08:59:08 09:03:01 21° 106° (ESE) 09:06:57 145.827
FALCONSAT 3 20 Jan 09:14:13 09:17:52 68° 202° (SSW) 09:21:30 435.103
JUGNU 20 Jan 09:15:00 09:17:32 13° 163° (SSE) 09:20:04 437.505
ZACube-1 20 Jan 09:15:44 09:19:33 27° 288° (WNW) 09:23:17 437.345
FO-29 20 Jan 09:20:25 09:25:22 20° 264° (W) 09:30:01 435.910
AO-73 20 Jan 09:23:04 09:26:46 25° 289° (WNW) 09:30:25 145.935
RS-15 20 Jan 09:29:06 09:41:01 54° 304° (NW) 09:52:56 29.354- 29.394
Max Valier Satellite 20 Jan 09:45:05 09:48:25 32° 98° (E) 09:51:43 145.860
BEESAT 3 20 Jan 09:47:50 09:51:48 89° 301° (WNW) 09:55:48 437.485
Oscar 11 20 Jan 09:57:54 10:00:36 16° 291° (WNW) 10:03:17 .
EO-88 20 Jan 10:05:31 10:08:54 37° 99° (E) 10:12:16 145.990 - 145.960
TIGRISAT 20 Jan 10:10:08 10:14:09 36° 262° (W) 10:18:15 435.000
AIST 2D 20 Jan 10:10:48 10:12:52 15° 71° (ENE) 10:14:56 435.315
UNISAT 6 20 Jan 10:26:01 10:29:22 21° 265° (W) 10:32:47 437.425
DELFI C3 20 Jan 10:30:59 10:34:32 33° 286° (WNW) 10:38:04 145.870
BEESAT 2 20 Jan 10:34:02 10:38:00 71° 115° (ESE) 10:42:01 435.950
PCSat 20 Jan 10:41:00 10:46:04 40° 300° (WNW) 10:51:10 145.827
YUBILEINY 20 Jan 10:47:00 10:55:45 77° 84° (E) 11:04:24 435.215
O/OREOS (USA 219) 20 Jan 10:47:51 10:52:09 46° 69° (ENE) 10:56:27 437.305
PRISM 20 Jan 10:49:34 10:53:32 52° 259° (W) 10:57:30 437.425
FALCONSAT 3 20 Jan 10:54:30 10:56:33 14° 213° (SSW) 10:58:36 435.103
POLYITAN 1 20 Jan 10:56:37 10:59:33 19° 70° (ENE) 11:02:31 437.675
JUGNU 20 Jan 11:01:27 11:05:55 22° 172° (S) 11:10:21 437.505
NANOSAT C BR1 20 Jan 11:12:20 11:15:46 25° 71° (ENE) 11:19:12 145.865
Max Valier Satellite 20 Jan 11:20:37 11:21:52 11° 291° (WNW) 11:23:06 145.860
QB50P2 20 Jan 11:24:59 11:29:02 47° 75° (ENE) 11:33:07 145.880/145.840
LO-87 20 Jan 11:26:48 11:30:19 48° 100° (E) 11:33:49 145.935 - 145.965
AO-85 20 Jan 11:40:24 11:44:02 40° 113° (ESE) 11:47:50 145.980
AIST 2D 20 Jan 11:43:01 11:45:47 22° 264° (W) 11:48:34 435.315
RS-15 20 Jan 11:50:44 11:57:09 15° 331° (NNW) 12:03:32 29.354- 29.394
DUCHIFAT 1 20 Jan 11:55:33 11:59:43 76° 77° (ENE) 12:03:56 145.980
EO-79 20 Jan 11:55:58 12:00:10 77° 260° (W) 12:04:24 145.935-145.965
ESTCUBE 1 20 Jan 12:04:19 12:08:47 78° 284° (WNW) 12:13:15 437.505/2401.250
SPROUT 20 Jan 12:09:07 12:12:31 23° 96° (E) 12:15:54 437.525
VELOX 1 20 Jan 12:09:31 12:10:30 11° 93° (E) 12:11:30 145.980
AO-91 20 Jan 12:20:54 12:22:02 11° 69° (ENE) 12:23:11 145.960
O/OREOS (USA 219) 20 Jan 12:29:36 12:31:03 11° 262° (W) 12:32:31 437.305
POLYITAN 1 20 Jan 12:31:29 12:35:05 27° 263° (W) 12:38:43 437.675
YUBILEINY 20 Jan 12:46:27 12:51:26 17° 279° (W) 12:56:26 435.215
NANOSAT C BR1 20 Jan 12:48:17 12:51:21 20° 264° (W) 12:54:27 145.865
JUGNU 20 Jan 12:49:37 12:54:21 26° 182° (S) 12:59:07 437.505
BUGSAT 1 20 Jan 12:59:20 13:03:22 89° 56° (NE) 13:07:29 437.445
Gurwin Techsat 1B 20 Jan 13:02:46 13:07:41 40° 72° (ENE) 13:12:37 435.225
QB50P2 20 Jan 13:04:48 13:05:00 10° 267° (W) 13:05:11 145.880/145.840
SRMSAT 20 Jan 13:09:13 13:13:14 19° 167° (SSE) 13:17:16 437.500
Oscar 19 20 Jan 13:21:01 13:26:13 86° 75° (ENE) 13:31:27 437.125/150
AO-85 20 Jan 13:22:39 13:24:38 13° 310° (NW) 13:26:41 145.980
VELOX 1 20 Jan 13:42:53 13:47:07 49° 286° (WNW) 13:51:22 145.980
SPROUT 20 Jan 13:44:52 13:48:14 23° 289° (WNW) 13:51:37 437.525
UKube-1 20 Jan 13:51:09 13:53:58 17° 96° (E) 13:56:48 .
AO-91 20 Jan 13:55:29 13:58:15 23° 263° (W) 14:01:02 145.960
DX 1 20 Jan 14:00:46 14:04:52 40° 100° (E) 14:08:56 434.975-435.025
AO-7 20 Jan 14:21:10 14:28:50 42° 65° (ENE) 14:36:31 .
ITAMSAT 1 20 Jan 14:28:26 14:31:35 16° 66° (ENE) 14:34:44 435.822/435.867
JUGNU 20 Jan 14:38:44 14:42:47 19° 192° (SSW) 14:46:51 437.505
Gurwin Techsat 1B 20 Jan 14:43:59 14:47:42 19° 265° (W) 14:51:26 435.225
50 SAT 20 Jan 14:44:15 14:47:12 38° 285° (WNW) 14:50:06 437.505
SRMSAT 20 Jan 14:56:58 15:01:50 26° 177° (S) 15:06:43 437.500
ITUPSAT 1 20 Jan 14:57:34 15:00:13 15° 94° (E) 15:02:52 437.325
SO-50 20 Jan 15:09:45 15:14:30 77° 62° (ENE) 15:19:16 436.795
UKube-1 20 Jan 15:26:12 15:29:58 30° 288° (WNW) 15:33:43 .
MOZHAYETS 4 20 Jan 15:31:18 15:35:57 74° 103° (ESE) 15:40:31
CUBESAT XI-V 20 Jan 15:34:34 15:37:24 16° 94° (E) 15:40:14 437.345
BEESAT 20 Jan 15:35:57 15:40:30 42° 100° (E) 15:45:00 436.000
DX 1 20 Jan 15:38:29 15:40:38 14° 292° (WNW) 15:42:46 434.975-435.025
NO-84 20 Jan 15:48:00 15:49:48 14° 124° (SE) 15:51:32 435.350 FM
ITAMSAT 1 20 Jan 16:05:39 16:10:36 47° 260° (W) 16:15:35 435.822/435.867
AO-7 20 Jan 16:14:02 16:21:30 36° 260° (W) 16:29:02 .
DOVE 4 20 Jan 16:20:15 16:24:30 52° 76° (ENE) 16:28:36 437.250
RS-15 20 Jan 16:26:30 16:36:19 30° 45° (NE) 16:45:41 29.354- 29.394
ITUPSAT 1 20 Jan 16:33:37 16:38:11 44° 287° (WNW) 16:42:42 437.325
M-CUBED/EXP-1 PRIME 20 Jan 16:39:03 16:43:29 63° 254° (WSW) 16:47:41 437.505
SRMSAT 20 Jan 16:45:47 16:50:29 24° 187° (S) 16:55:12 437.500
XW-2B 20 Jan 16:57:12 16:59:15 14° 70° (ENE) 17:01:17 145.730 - 145.750
KKS-1 20 Jan 17:04:05 17:07:27 21° 96° (E) 17:10:48 437.445
CUBESAT XI-V 20 Jan 17:10:37 17:14:49 36° 287° (WNW) 17:19:00 437.345
BEESAT 20 Jan 17:14:58 17:17:51 16° 293° (WNW) 17:20:44 436.000
STARS 20 Jan 17:22:47 17:24:15 11° 94° (E) 17:25:43 437.465
LilacSat-2 20 Jan 17:23:08 17:26:41 35° 74° (ENE) 17:30:13 437.200
NO-84 20 Jan 17:23:59 17:26:46 27° 314° (NW) 17:29:24 435.350 FM
XW-2C 20 Jan 17:25:53 17:29:22 34° 74° (ENE) 17:32:52 145.795 - 145.815
CUTE-I 20 Jan 17:36:01 17:41:00 42° 72° (ENE) 17:45:59 437.470
CUTE 1.7 + AOD 2 20 Jan 17:51:36 17:54:36 19° 71° (ENE) 17:57:37 437.475
CUBEBUG 2 20 Jan 18:00:44 18:03:15 15° 68° (ENE) 18:05:47 437.445
KAITUO 1B 20 Jan 18:01:07 18:04:53 74° 77° (ENE) 18:08:38 145.475/437.950
XW-2F 20 Jan 18:02:13 18:06:01 77° 259° (WSW) 18:09:50 145.980 - 146.000
BEESAT 3 20 Jan 18:11:20 18:12:22 11° 51° (NE) 18:13:23 437.485
XW-2D 20 Jan 18:11:45 18:15:27 47° 261° (W) 18:19:10 145.860 - 145.880
NUDT-PHONESAT 20 Jan 18:12:44 18:16:27 81° 259° (WSW) 18:20:12 437.300
